Temperature
23 23 22 23 26 26 27 31 33 32 32 31 31 31 29 28 27 25 25 24 23 22 22 21 21 20 20 20 20 19 19 19 19 19 19 19 19 18 18 18 18 18 18 18 18 18 18 18 18
23 23 24 26 27 27 28 31 32 32 31 31 30 30 29 28 27 26 25 24 22 22 22 21 21 20 20 20 19 19 19 19 19 19 19 19 18 18 18 18 18 18 18 18 18 18 18 18 18
23 24 26 29 28 29 30 32 32 32 31 31 30 29 28 27 26 25 24 23 22 21 21 21 21 20 20 20 19 19 19 19 19 19 19 19 18 18 18 18 18 18 18 18 18 18 18 18 18
23 26 28 29 29 31 32 32 33 32 31 30 30 28 26 26 25 25 24 23 21 21 21 21 21 20 20 20 19 19 19 19 19 19 19 19 18 18 18 18 18 18 18 18 18 18 18 18 18
25 28 29 29 30 32 33 33 32 32 31 31 29 27 25 25 25 24 24 23 21 20 21 21 21 20 20 20 19 19 19 19 19 19 19 19 18 18 18 18 18 18 18 18 18 18 18 18 18
27 30 29 30 31 33 33 33 32 32 30 30 29 27 25 24 24 24 24 23 22 21 20 21 20 20 20 19 19 19 19 19 19 19 19 19 19 19 19 18 18 18 18 18 18 18 18 18 18
28 29 30 31 32 33 33 33 32 32 31 30 29 27 25 24 24 24 24 23 22 21 20 21 20 20 20 19 19 19 19 19 19 19 19 19 19 19 19 18 18 18 18 19 19 19 18 18 18
29 30 30 32 32 32 33 32 32 31 30 29 29 27 25 24 24 24 24 23 22 21 20 20 20 20 20 19 19 19 19 19 19 19 19 19 19 19 18 18 18 19 19 19 19 19 19 19 19
29 30 30 32 32 33 33 32 32 30 30 29 28 26 24 24 24 24 23 23 22 21 20 20 19 20 19 19 19 19 19 19 19 19 19 19 18 18 18 18 18 19 19 19 19 19 19 18 18
31 30 31 33 33 33 33 32 31 31 30 28 26 25 23 24 24 24 23 23 22 21 20 20 19 19 19 19 19 19 19 19 19 19 19 18 18 18 18 18 18 18 18 18 18 18 18 18 18
32 31 32 33 33 32 32 31 31 30 29 27 25 24 23 23 23 24 23 23 22 21 21 20 20 19 19 19 19 19 18 19 18 18 18 18 18 18 18 18 18 18 18 18 18 18 18 18 18
32 32 32 32 32 32 31 31 31 30 28 26 25 24 23 23 23 23 23 23 22 21 21 20 20 19 19 19 19 19 19 19 18 18 18 18 18 18 18 18 18 18 18 18 18 18 18 18 18
32 32 32 32 31 31 31 30 30 29 27 26 25 24 23 23 23 22 22 22 21 21 20 20 20 19 19 19 19 19 19 19 19 19 18 18 18 18 18 18 18 18 18 18 18 17 17 17 18
32 32 32 31 31 31 31 30 29 27 27 26 25 24 23 22 22 22 21 21 21 20 20 20 19 20 19 19 19 19 19 19 19 18 18 18 18 18 18 18 18 18 18 18 17 17 17 17 17
32 31 31 31 31 31 31 29 28 27 26 25 25 23 23 22 21 21 21 20 20 20 20 19 19 19 19 19 19 19 19 19 18 18 18 18 18 18 18 18 18 18 18 18 17 17 17 17 17
31 30 29 30 31 31 30 28 28 26 26 25 24 23 22 21 21 21 20 20 20 19 19 19 19 19 19 19 19 19 19 19 18 18 18 18 18 18 18 18 18 18 18 17 17 17 17 17 17
30 29 29 29 31 31 30 28 28 26 26 25 24 23 22 21 20 20 20 20 19 19 19 19 19 19 19 18 18 19 19 19 18 18 18 18 18 18 18 18 17 18 17 17 17 17 17 17 17
29 30 30 30 31 31 30 29 28 27 26 25 24 23 22 21 20 20 20 19 19 19 19 19 19 18 18 18 18 18 18 18 18 18 18 18 18 18 18 17 17 17 17 17 17 17 17 17 17
31 31 30 30 32 31 30 29 28 27 26 25 24 23 22 21 20 19 19 19 19 18 18 18 18 18 18 18 18 18 18 18 18 18 18 18 17 17 17 17 17 17 17 17 17 17 17 17 17
31 31 30 30 31 31 29 28 28 27 26 25 24 23 22 20 20 19 19 19 19 18 18 18 18 18 18 18 18 18 18 18 18 18 17 17 17 17 17 17 17 17 17 17 16 16 16 16 17
31 31 30 31 31 31 29 27 27 27 26 25 25 23 22 21 20 19 19 19 18 18 18 18 18 18 18 18 18 18 18 18 18 17 17 17 17 17 17 17 17 17 16 16 16 16 16 16 16
30 31 31 31 30 29 28 26 26 26 26 26 25 24 22 21 20 19 19 19 18 18 18 18 18 18 18 18 18 18 18 18 18 17 17 17 17 17 17 16 16 16 16 16 16 16 16 16 16
31 32 31 30 28 27 27 26 27 27 26 26 26 25 23 22 21 20 19 19 19 18 18 18 18 18 18 18 18 18 18 18 18 17 17 17 17 16 16 16 16 16 16 16 16 16 16 16 16
32 31 30 28 25 23 25 26 27 27 27 27 26 25 23 22 21 20 19 19 19 19 18 18 18 18 18 18 18 18 18 18 18 17 17 17 17 16 16 16 16 16 16 15 15 15 15 15 15
32 30 27 25 22 22 24 26 28 29 29 28 27 25 24 23 22 21 20 19 19 19 19 18 18 18 18 18 18 18 18 18 18 17 17 17 17 16 16 16 16 16 15 15 15 15 15 15 15
31 30 27 25 24 24 24 25 28 30 30 29 27 26 24 23 22 21 21 20 20 19 19 18 18 18 18 18 18 18 18 17 17 17 17 17 17 17 16 16 16 16 15 15 15 15 15 15 15
30 30 30 28 27 26 24 25 27 29 29 29 28 26 25 24 23 22 21 21 20 20 19 19 18 18 18 17 18 18 18 17 17 17 17 17 17 17 17 16 16 16 15 15 15 15 15 14 15
32 31 30 28 27 26 25 24 23 25 27 28 28 27 26 25 24 23 22 21 21 20 20 19 18 18 18 18 18 18 18 18 17 17 17 17 17 17 17 16 16 16 15 15 15 15 15 15 15
30 30 29 29 29 26 25 23 24 23 26 28 29 28 27 26 25 24 23 22 21 21 20 19 19 18 18 18 18 18 18 18 17 17 17 17 17 17 17 16 16 15 15 15 15 15 15 15 15
29 29 29 28 28 28 26 25 26 26 28 29 29 28 27 26 26 24 24 23 22 21 20 20 19 19 18 18 18 18 18 17 17 17 17 17 17 17 16 16 16 15 15 15 15 15 15 15 15
Wind_Speed
10 12 11 8 6 5 10 6 6 9 7 9 8 7 11 13 10 9 12 20 25 24 22 21 20 19 18 17 17 16 16 15 15 14 14 13 13 13 13 13 13 14 13 14 13 13 13 13 12
11 14 11 7 7 7 6 3 7 8 7 7 6 7 10 13 13 13 15 21 26 23 22 20 21 20 19 18 17 17 16 16 15 14 13 13 13 13 13 13 13 13 13 13 13 13 13 12 11
13 17 9 8 11 9 2 3 6 5 7 4 5 7 8 9 10 11 17 23 24 21 21 22 22 20 19 18 18 17 16 16 15 14 13 13 13 12 12 13 13 13 13 13 13 13 12 11 10
8 10 8 8 11 8 4 5 4 3 5 3 5 7 9 8 9 14 19 22 23 21 22 22 22 21 19 18 18 17 16 15 14 14 13 12 12 12 12 12 12 13 13 13 13 12 11 10 8
11 9 11 11 12 5 3 5 3 2 2 4 7 9 9 8 12 18 20 22 22 22 21 22 22 21 19 18 17 17 16 15 14 13 13 12 12 12 12 12 12 12 12 12 11 11 10 9 7
9 10 12 12 9 3 2 3 3 4 2 2 6 10 8 10 13 17 20 20 21 22 21 21 21 21 19 18 17 16 15 14 14 13 12 12 12 12 12 11 11 11 11 10 10 9 9 7 5
12 12 15 15 6 2 3 4 3 1 0 2 3 8 9 13 14 16 18 18 20 22 21 19 19 19 18 17 16 15 15 14 13 13 12 11 11 11 11 10 10 10 9 9 8 8 7 6 4
12 11 16 12 5 2 4 2 2 4 3 2 2 5 9 12 14 16 16 17 18 20 20 17 18 18 17 16 15 15 14 14 13 12 11 11 11 11 11 11 10 9 8 8 7 6 5 5 3
13 12 13 9 6 4 4 2 1 1 2 1 3 9 12 15 15 16 15 15 15 18 17 18 18 16 17 16 16 15 14 13 13 12 11 11 10 11 10 11 11 9 8 7 6 6 5 5 6
9 10 9 7 8 7 6 5 4 3 1 3 7 12 14 14 15 16 16 16 16 16 17 16 16 14 14 15 15 13 13 13 12 11 12 9 7 8 11 13 11 10 8 7 7 6 6 7 7
10 10 8 7 6 7 7 6 4 5 2 2 7 9 12 14 14 14 15 14 15 14 14 16 15 11 10 9 11 9 10 11 10 11 9 7 6 8 10 9 9 9 9 7 8 8 6 4 1
9 9 7 7 6 7 6 6 5 3 2 3 6 10 12 13 13 12 12 12 13 12 11 14 14 10 8 9 7 7 7 6 6 9 7 6 3 3 5 5 6 6 6 5 4 3 2 1 1
10 10 8 7 7 6 6 6 6 3 3 4 6 9 10 10 11 10 9 10 12 11 12 12 11 10 8 6 4 6 5 5 7 7 4 6 4 2 3 2 2 2 4 4 2 1 2 1 0
9 7 8 7 7 7 7 5 4 1 1 2 5 8 8 8 10 10 10 9 11 11 11 12 11 11 9 6 3 4 5 6 7 7 5 4 5 3 2 3 1 1 2 2 1 2 2 1 0
9 9 10 9 10 7 6 5 1 2 2 1 4 7 9 9 9 9 11 11 11 12 11 11 11 11 9 8 6 5 6 7 6 6 6 5 6 4 3 3 2 1 3 4 2 2 1 2 2
13 11 10 10 11 6 6 5 4 3 2 3 4 6 8 8 9 9 11 11 10 11 12 11 12 12 9 7 5 4 5 7 6 8 7 5 5 4 2 2 2 2 3 3 2 1 1 0 0
12 11 10 9 9 5 6 4 4 5 4 5 6 6 7 7 8 8 10 10 10 10 11 10 10 12 10 7 4 5 4 4 5 7 7 6 6 4 2 3 2 2 1 1 1 3 1 1 1
12 11 7 5 4 6 6 3 5 6 7 6 6 6 7 8 8 9 10 11 10 10 10 10 10 10 9 7 5 4 5 4 4 5 6 7 6 5 3 4 3 0 2 2 3 3 1 1 2
13 12 9 7 5 6 6 4 5 7 6 6 6 7 8 8 8 8 10 11 11 11 11 11 10 10 8 7 6 5 5 4 3 5 7 7 6 5 2 3 3 1 3 3 2 1 1 2 1
13 13 11 8 7 7 6 5 3 6 5 6 7 7 10 10 9 9 9 10 11 11 11 11 11 11 9 7 6 5 5 4 4 4 6 7 6 5 5 3 2 3 3 3 2 2 1 2 1
12 11 12 11 9 8 7 5 6 8 6 7 8 10 11 12 12 12 12 11 11 11 12 12 11 11 10 9 6 5 4 2 4 6 5 5 6 5 3 4 1 2 2 3 2 1 1 1 1
12 10 12 13 11 7 5 4 8 11 9 8 9 10 12 11 13 13 12 12 12 12 12 11 11 10 9 9 8 9 7 6 6 6 6 5 6 6 6 4 3 1 1 4 1 3 1 1 2
11 11 12 11 10 8 7 6 6 11 11 11 11 11 13 13 14 14 13 12 13 13 13 12 11 10 9 8 8 7 7 6 6 6 7 6 5 5 5 4 3 2 2 3 3 3 2 3 3
11 11 11 7 4 6 10 7 5 9 10 12 12 13 14 14 14 14 14 13 12 13 13 12 11 9 9 9 8 7 6 6 7 7 8 6 5 5 5 5 3 2 2 3 3 2 0 1 3
11 9 6 4 1 5 12 7 3 9 10 12 15 15 15 15 14 14 14 14 13 14 14 13 12 11 10 9 8 8 6 6 7 7 8 6 6 6 6 6 4 3 3 3 2 2 1 1 1
11 11 8 6 6 4 3 3 1 6 9 11 15 16 16 16 15 15 14 14 14 15 14 14 13 12 11 10 9 8 8 6 6 6 5 6 3 6 8 6 5 4 4 4 3 2 3 3 1
12 11 11 9 11 6 1 1 1 4 8 11 14 16 17 16 16 16 16 15 14 14 14 14 13 12 11 11 9 8 8 6 5 6 4 4 4 7 8 7 6 5 4 2 3 2 1 3 2
15 10 7 8 7 7 1 1 1 3 5 10 14 15 17 17 17 17 16 16 14 14 12 13 12 12 11 11 10 10 8 6 6 6 6 4 4 6 8 7 7 6 6 4 3 3 4 3 3
11 12 9 8 8 7 4 1 5 8 8 9 13 15 16 17 17 16 15 15 14 14 14 13 13 12 11 11 10 9 9 8 8 6 6 5 5 6 7 7 7 6 6 6 5 5 4 5 5
11 13 11 9 10 8 6 2 5 8 7 6 10 13 15 15 16 16 16 15 14 15 15 14 14 14 13 11 10 9 9 9 9 8 7 7 7 7 7 6 6 7 7 7 7 7 6 5 5
Wind_Direction
218 231 232 247 247 251 271 280 48 53 53 60 54 52 61 61 75 101 129 127 122 126 131 132 130 130 130 130 129 128 126 123 120 116 113 109 105 102 99 97 94 93 92 93 91 91 91 91 91
234 237 237 248 252 259 273 327 58 74 78 85 79 75 74 70 85 117 127 124 124 128 135 134 132 130 129 129 128 128 127 125 121 119 116 113 109 105 101 99 97 95 95 96 94 92 92 91 89
253 257 259 251 256 269 329 40 65 80 96 101 95 76 72 86 93 116 125 126 125 128 129 131 133 131 130 130 129 128 127 125 124 122 118 114 110 107 103 101 100 97 97 96 95 93 93 92 89
248 243 242 259 281 300 346 34 34 101 112 119 105 94 82 92 116 126 131 128 125 128 129 134 133 132 132 131 130 129 128 128 127 125 121 118 113 109 107 105 102 101 99 98 97 96 95 93 89
243 257 250 265 272 290 5 35 339 84 131 135 110 106 100 107 124 132 137 133 134 132 131 136 136 135 135 134 132 132 132 132 131 128 124 121 117 113 110 107 105 104 102 101 99 98 97 95 87
251 255 263 271 273 280 56 48 5 47 80 85 118 121 118 131 132 140 142 142 138 133 133 136 138 137 137 136 136 136 136 136 135 131 127 124 122 119 115 113 111 108 106 105 104 103 101 97 88
258 276 278 277 284 308 52 7 14 310 36 89 93 112 126 135 138 144 143 142 137 134 134 142 142 140 140 140 141 141 141 140 139 136 134 133 131 129 125 122 118 115 113 114 114 113 112 111 107
259 280 287 288 298 19 65 0 25 12 43 37 67 100 130 138 148 147 144 140 136 136 140 146 146 145 147 146 146 146 147 146 144 144 145 146 147 146 144 139 128 125 126 127 128 132 138 143 154
253 265 281 308 339 19 40 349 358 299 191 153 81 103 130 149 154 150 148 144 139 138 143 151 148 152 155 153 152 153 153 154 154 157 161 166 172 165 161 141 140 140 141 144 148 158 175 184 197
243 260 286 340 341 347 354 335 313 279 286 102 96 108 136 157 160 159 157 154 145 143 151 153 148 156 159 154 152 161 164 163 175 169 174 189 183 154 143 143 151 154 160 165 176 188 209 221 207
254 270 309 327 335 332 322 318 316 296 321 94 130 145 157 166 167 165 165 160 147 149 154 149 148 154 151 139 155 160 159 165 179 165 173 172 154 141 138 152 158 172 180 188 182 203 222 216 162
257 281 291 301 318 305 312 316 314 321 47 114 142 157 168 173 171 172 165 155 144 146 146 144 144 146 133 136 147 145 145 166 154 151 173 152 146 125 129 142 158 172 177 180 179 207 169 71 59
253 265 270 280 281 287 293 298 306 336 83 117 142 151 165 171 169 171 161 155 146 144 143 137 140 130 125 122 147 144 137 148 137 141 162 147 136 112 108 93 116 165 152 163 184 120 99 106 62
281 295 297 289 283 274 271 273 274 328 25 145 154 152 157 168 175 166 157 155 150 150 145 139 139 133 131 136 137 122 136 132 130 138 137 125 110 109 113 124 149 166 127 107 127 129 133 157 146
283 285 284 279 268 252 261 276 299 154 135 178 161 150 154 168 174 173 165 156 158 154 146 140 143 141 143 150 160 144 143 136 129 122 129 139 124 137 155 152 163 172 148 147 148 136 154 200 209
281 270 270 273 265 256 261 272 145 132 154 176 177 161 161 165 176 176 161 158 158 153 149 154 155 146 148 153 163 137 140 135 135 136 138 134 132 158 180 143 126 187 171 150 137 119 151 129 236
269 265 262 255 242 255 256 260 152 162 177 188 186 172 163 163 173 165 155 156 155 155 153 154 142 146 148 152 152 138 130 130 137 139 141 148 153 163 161 105 110 220 141 111 128 102 67 337 309
274 280 279 264 230 253 262 244 180 177 187 193 183 176 169 165 164 156 152 154 155 152 151 149 142 145 149 152 151 142 135 140 143 130 135 148 162 165 146 133 146 244 100 96 85 105 161 226 262
284 297 302 300 288 276 271 242 201 171 190 188 177 178 172 164 153 151 153 157 160 153 152 155 151 150 155 158 159 155 154 160 154 141 147 158 165 151 144 104 141 127 97 99 102 103 250 221 219
282 292 297 289 271 269 269 255 182 152 188 187 175 171 164 162 156 159 162 164 163 156 158 156 155 157 163 160 155 157 150 167 159 137 148 160 157 158 154 133 172 122 123 124 102 95 329 296 119
278 286 292 287 276 268 266 246 183 171 182 180 172 164 167 169 164 164 167 168 168 163 165 163 160 163 166 158 154 151 139 156 150 142 161 165 157 157 118 138 116 122 161 137 151 146 212 323 312
280 284 287 293 293 282 262 251 201 174 184 189 183 170 168 168 163 166 169 173 174 169 167 158 161 162 160 162 164 166 171 176 168 160 157 160 162 159 153 154 142 136 89 115 171 113 343 290 291
281 287 289 296 310 305 286 263 198 172 186 185 181 170 162 164 165 167 171 174 173 169 163 159 159 160 163 171 168 177 178 171 158 144 145 160 156 165 163 154 146 137 102 104 80 77 17 349 358
273 279 287 309 330 307 278 261 196 175 187 178 169 163 158 160 161 164 170 171 171 165 159 158 158 162 168 175 171 186 175 163 150 151 155 174 163 171 166 161 148 144 127 117 108 95 120 50 29
260 272 282 297 303 260 275 272 170 158 167 166 162 163 160 161 162 166 170 170 171 167 162 160 163 169 173 175 173 175 170 163 161 169 171 190 171 172 170 162 149 155 135 140 137 157 122 86 64
253 262 266 282 277 256 284 295 132 140 139 145 153 158 162 165 166 168 170 170 172 170 167 165 168 171 173 177 172 168 172 182 178 188 178 192 183 155 148 142 156 168 164 173 151 203 186 160 197
251 255 273 275 279 290 267 299 88 111 136 149 155 160 166 169 169 172 173 174 174 173 171 170 169 171 175 175 170 171 183 194 165 164 191 179 153 147 147 155 164 169 163 166 153 210 197 144 207
247 255 274 285 296 303 272 158 309 300 186 170 164 165 168 170 173 174 175 177 174 173 169 169 171 173 174 174 176 180 182 179 165 174 186 169 148 132 149 164 168 170 168 179 200 220 188 187 210
252 248 255 273 281 293 298 289 191 230 235 188 167 167 169 173 174 174 175 176 174 174 173 172 170 173 178 179 184 176 177 180 180 185 176 165 156 152 164 173 176 179 181 184 194 232 202 201 220
261 263 254 257 271 277 280 162 199 209 216 188 167 166 168 171 172 173 174 173 175 176 177 177 176 179 182 181 182 180 179 178 182 186 180 171 172 174 179 183 187 196 195 189 196 223 222 211 217
Height
1494 1494 1494 1496 1493 1491 1487 1466 1457 1461 1463 1467 1469 1471 1475 1480 1488 1501 1500 1502 1504 1507 1513 1518 1522 1525 1528 1531 1534 1536 1538 1540 1542 1543 1545 1546 1547 1548 1549 1550 1551 1552 1553 1553 1554 1555 1556 1557 1557
1494 1494 1496 1493 1488 1494 1483 1465 1462 1464 1467 1470 1472 1474 1477 1484 1489 1496 1500 1503 1505 1508 1514 1518 1523 1526 1529 1532 1535 1537 1539 1541 1543 1545 1546 1548 1549 1550 1551 1552 1553 1554 1554 1555 1556 1557 1558 1558 1559
1494 1495 1495 1484 1483 1484 1476 1462 1461 1463 1467 1470 1473 1476 1480 1488 1493 1497 1501 1504 1506 1510 1515 1519 1523 1527 1530 1533 1536 1538 1541 1543 1545 1546 1548 1549 1550 1552 1553 1554 1555 1555 1556 1557 1558 1559 1560 1561 1561
1495 1494 1490 1482 1481 1467 1462 1460 1462 1463 1468 1471 1473 1479 1486 1490 1494 1498 1502 1505 1508 1512 1516 1520 1524 1528 1531 1534 1537 1539 1542 1544 1546 1548 1549 1551 1552 1553 1554 1555 1556 1557 1558 1559 1560 1561 1562 1563 1564
1495 1490 1484 1483 1475 1462 1458 1460 1463 1463 1467 1470 1473 1481 1489 1492 1494 1499 1502 1506 1509 1513 1516 1521 1525 1528 1532 1535 1538 1541 1543 1545 1547 1549 1550 1552 1554 1555 1556 1557 1558 1559 1560 1561 1562 1563 1563 1564 1565
1493 1484 1485 1481 1468 1459 1458 1461 1463 1465 1469 1471 1474 1479 1489 1492 1495 1499 1503 1507 1511 1514 1517 1521 1525 1529 1533 1536 1539 1542 1544 1546 1548 1550 1552 1553 1555 1556 1557 1558 1559 1560 1561 1562 1563 1564 1565 1566 1567
1491 1482 1479 1470 1465 1460 1460 1462 1464 1467 1468 1471 1474 1479 1487 1491 1496 1500 1504 1508 1512 1514 1517 1521 1525 1529 1533 1536 1539 1542 1545 1547 1549 1551 1553 1554 1556 1557 1559 1560 1561 1562 1563 1563 1564 1565 1566 1567 1568
1487 1482 1476 1465 1463 1462 1461 1464 1466 1468 1471 1474 1476 1480 1488 1492 1497 1501 1504 1508 1512 1515 1518 1522 1526 1529 1533 1537 1540 1543 1545 1548 1550 1552 1554 1555 1557 1558 1560 1561 1562 1563 1564 1565 1565 1566 1567 1568 1569
1484 1483 1478 1466 1462 1461 1461 1464 1467 1470 1472 1474 1477 1481 1489 1494 1498 1502 1504 1508 1512 1516 1519 1524 1527 1530 1533 1537 1540 1543 1546 1548 1550 1552 1554 1556 1558 1559 1560 1562 1563 1564 1564 1565 1566 1567 1568 1569 1570
1479 1480 1472 1463 1461 1461 1463 1465 1467 1469 1471 1474 1478 1483 1490 1494 1498 1501 1503 1507 1511 1515 1518 1524 1527 1530 1534 1538 1541 1544 1546 1548 1550 1552 1555 1557 1559 1561 1561 1562 1563 1564 1565 1566 1567 1567 1568 1569 1570
1472 1470 1466 1463 1463 1465 1466 1467 1468 1469 1473 1476 1480 1484 1488 1493 1496 1499 1502 1505 1510 1514 1518 1522 1526 1530 1535 1538 1541 1544 1547 1549 1551 1553 1556 1557 1559 1561 1562 1563 1563 1564 1565 1566 1567 1568 1568 1569 1571
1470 1467 1466 1466 1466 1466 1467 1468 1468 1470 1474 1478 1480 1483 1487 1492 1495 1498 1501 1504 1508 1512 1515 1520 1525 1530 1534 1538 1541 1544 1547 1549 1551 1553 1556 1558 1560 1561 1562 1563 1563 1565 1565 1566 1567 1568 1568 1569 1570
1467 1465 1465 1465 1466 1466 1468 1468 1470 1472 1475 1478 1480 1483 1486 1489 1493 1496 1499 1502 1505 1510 1513 1518 1523 1528 1533 1537 1541 1544 1547 1549 1551 1553 1555 1558 1559 1561 1562 1563 1564 1565 1566 1566 1567 1567 1568 1569 1570
1464 1464 1464 1464 1464 1466 1466 1467 1469 1474 1476 1478 1480 1483 1486 1489 1492 1495 1497 1500 1504 1508 1513 1518 1522 1526 1532 1536 1540 1543 1546 1548 1550 1552 1555 1557 1558 1560 1561 1562 1563 1564 1565 1566 1566 1567 1567 1568 1569
1465 1465 1465 1464 1463 1462 1465 1468 1470 1473 1475 1478 1480 1483 1485 1488 1491 1493 1496 1499 1503 1507 1512 1516 1520 1525 1530 1535 1539 1542 1545 1547 1550 1551 1553 1556 1557 1559 1560 1561 1562 1564 1565 1565 1566 1566 1567 1567 1568
1465 1467 1472 1465 1461 1460 1466 1473 1469 1473 1475 1477 1480 1482 1485 1488 1490 1492 1495 1498 1502 1506 1511 1515 1519 1523 1529 1534 1538 1541 1544 1546 1549 1550 1552 1554 1556 1558 1559 1561 1562 1563 1564 1565 1566 1566 1566 1567 1567
1468 1472 1471 1466 1458 1457 1461 1467 1467 1470 1474 1476 1479 1481 1484 1487 1489 1491 1494 1498 1501 1505 1509 1514 1518 1523 1528 1533 1537 1540 1543 1545 1548 1550 1551 1553 1555 1557 1559 1560 1561 1562 1563 1564 1565 1565 1565 1566 1566
1470 1464 1463 1462 1454 1454 1458 1462 1463 1467 1471 1474 1477 1480 1483 1486 1488 1491 1493 1497 1501 1505 1509 1514 1518 1522 1527 1531 1535 1539 1542 1545 1547 1549 1550 1552 1554 1556 1558 1559 1560 1561 1562 1563 1563 1564 1564 1565 1565
1455 1456 1459 1455 1448 1452 1455 1459 1460 1464 1468 1471 1474 1478 1482 1485 1487 1490 1493 1496 1500 1504 1508 1513 1517 1521 1525 1530 1534 1537 1541 1544 1547 1548 1549 1552 1554 1555 1557 1558 1559 1560 1561 1561 1562 1563 1564 1564 1565
1453 1457 1457 1452 1447 1449 1454 1457 1457 1462 1467 1469 1472 1476 1480 1483 1486 1489 1492 1495 1499 1503 1507 1512 1515 1520 1524 1528 1533 1537 1540 1543 1546 1547 1549 1551 1553 1554 1556 1557 1558 1559 1560 1560 1561 1562 1563 1564 1564
1453 1455 1454 1451 1445 1445 1453 1461 1461 1461 1464 1468 1470 1474 1479 1482 1486 1489 1491 1495 1499 1503 1506 1511 1514 1519 1523 1527 1531 1535 1539 1542 1544 1546 1548 1550 1552 1553 1554 1555 1557 1558 1559 1559 1560 1561 1562 1562 1563
1455 1446 1446 1447 1453 1458 1457 1475 1462 1459 1463 1465 1468 1472 1476 1480 1484 1488 1491 1495 1499 1502 1506 1510 1514 1518 1522 1526 1530 1533 1536 1539 1542 1544 1546 1548 1550 1552 1553 1554 1555 1556 1558 1558 1559 1559 1561 1561 1562
1446 1441 1443 1447 1457 1464 1461 1468 1461 1454 1460 1461 1464 1469 1474 1479 1483 1487 1491 1494 1498 1502 1505 1509 1513 1517 1521 1525 1528 1532 1536 1538 1541 1543 1545 1547 1549 1550 1552 1553 1553 1555 1556 1557 1557 1558 1559 1560 1561
1439 1442 1445 1453 1467 1488 1472 1469 1463 1452 1453 1455 1460 1466 1472 1477 1482 1486 1490 1494 1498 1501 1505 1508 1512 1516 1520 1523 1527 1530 1534 1537 1539 1541 1543 1545 1547 1549 1550 1551 1552 1553 1554 1555 1555 1556 1557 1558 1558
1440 1452 1470 1481 1494 1495 1468 1464 1454 1441 1442 1447 1455 1463 1469 1475 1480 1485 1489 1492 1496 1500 1503 1507 1510 1514 1518 1521 1525 1528 1531 1534 1536 1539 1541 1543 1545 1546 1548 1549 1550 1551 1552 1553 1554 1555 1556 1556 1556
1440 1448 1470 1486 1487 1479 1470 1467 1448 1436 1439 1445 1452 1459 1466 1472 1478 1482 1487 1490 1494 1498 1502 1505 1508 1512 1516 1520 1523 1526 1529 1532 1535 1537 1539 1541 1544 1545 1545 1547 1548 1549 1550 1552 1552 1554 1554 1554 1555
1440 1443 1439 1455 1461 1471 1473 1465 1449 1439 1441 1445 1451 1457 1463 1469 1475 1480 1485 1489 1493 1497 1500 1504 1507 1511 1514 1518 1521 1524 1527 1530 1533 1535 1537 1539 1541 1543 1543 1545 1546 1547 1548 1549 1551 1552 1553 1553 1553
1430 1432 1441 1452 1467 1475 1473 1472 1470 1456 1448 1445 1448 1454 1460 1467 1472 1477 1482 1487 1491 1495 1499 1502 1505 1508 1512 1515 1518 1521 1524 1527 1530 1532 1535 1537 1539 1540 1541 1542 1544 1545 1546 1547 1548 1550 1550 1551 1552
1436 1437 1439 1444 1447 1466 1479 1479 1456 1454 1447 1443 1445 1451 1456 1463 1468 1474 1479 1484 1489 1493 1497 1500 1503 1506 1510 1513 1516 1520 1522 1525 1527 1529 1531 1534 1536 1538 1539 1540 1542 1543 1544 1545 1546 1547 1549 1549 1550
1433 1436 1439 1453 1453 1449 1461 1469 1444 1444 1441 1440 1442 1448 1453 1459 1465 1471 1476 1481 1486 1490 1494 1498 1501 1504 1507 1511 1514 1517 1519 1522 1524 1526 1529 1531 1533 1534 1536 1538 1540 1541 1542 1543 1544 1545 1546 1547 1548